Location: Ferma
(41.9500°N, 44.5167°E)
Time: 06:00:20
(UTC+00:00)

Cosmos 1269 Rocket - Pass Details

Date: 07 June 2022
Orbit: 773 x 778 km, 74.1° (Epoch: 03 July)

Event Time Altitude Azimuth Distance (km) Brightness Sun altitude
Rises 20:39:19 0° 336° (NNW) 3,258 8.4 -25.0°
Reaches altitude 10° 20:41:44 10° 334° (NNW) 2,327 7.4 -25.1°
Maximum altitude 20:46:56 62° 254° (WSW) 869 4.1 -25.2°
Enters shadow 20:47:11 61° 239° (WSW) 876 4.1 -25.2°
